Regional Weather Roundup
Issued by NWS

Home | Current Version | Previous Version | Text Only | Print | Product List | Glossary Off
Versions: 1 2 3 4 5 6 7 8 9 10 11 12 13 14 15 16 17 18 19 20 21 22 23 24 25 26 27 28 29 30 31 32 33 34 35 36 37 38 39 40 41 42 43 44 45 46 47 48 49 50

000
ASUS43 KMKX 162100
RWRWI

WISCONSIN REGIONAL WEATHER ROUNDUP
NATIONAL WEATHER SERVICE MILWAUKEE/SULLIVAN WI
300 PM CST MON JAN 16 2017

NOTE: "FAIR" INDICATES FEW OR NO CLOUDS BELOW 12,000 FEET WITH NO
SIGNIFICANT WEATHER AND/OR OBSTRUCTIONS TO VISIBILITY.

WIZ001-002-006>008-014>016-023>028-162200-
NORTHWEST WISCONSIN

CITY           SKY/WX    TMP DP  RH WIND       PRES   REMARKS
SUPERIOR ARPT  SUNNY     33  19  57 NW3       30.07F
ASHLAND        CLOUDY    36  20  52 CALM      30.08F
HAYWARD        CLOUDY    30  19  63 S5        30.07F WCI  25
SIREN          CLOUDY    31  18  59 CALM      30.08S
CUMBERLAND     CLOUDY    25  14  63 CALM      30.07S
RICE LAKE      CLOUDY    24  18  75 CALM      30.09F
CHETEK         CLOUDY    27  17  66 E6        30.08F WCI  20
LADYSMITH      CLOUDY    28  18  66 E5        30.09F WCI  23
EAU CLAIRE     NOT AVBL
MENOMONIE      CLOUDY    28  19  67 CALM      30.08F
NEW RICHMOND   CLOUDY    28  17  62 E5        30.07S WCI  23
OSCEOLA        CLOUDY    30  19  61 CALM      30.10F
$$

WIZ003>005-009-010-017-018-162200-
NORTH CENTRAL WISCONSIN

CITY           SKY/WX    TMP DP  RH WIND       PRES   REMARKS
MANITOWISH WTR CLOUDY    29  17  59 SE5       30.06S WCI  24
ARBOR VITAE    CLOUDY    32  22  66 S5        30.06F WCI  27
WOODRUFF       CLOUDY    32  22  66 S5        30.06F WCI  27
RHINELANDER    CLOUDY    31  19  61 CALM      30.09S
EAGLE RIVER    CLOUDY    33  22  63 SW3       30.07S
LAND O LAKES   CLOUDY    34  20  57 S6        30.07F WCI  29
PHILLIPS       CLOUDY    30  20  65 SE3       30.07F
TOMAHAWK       CLOUDY    31  17  56 CALM      30.09F
MEDFORD        CLOUDY    29  15  55 E3        30.07F
MERRILL        CLOUDY    29  15  56 CALM        N/A
$$

WIZ029-030-035-036-043>047-162200-
CENTRAL WISCONSIN

CITY           SKY/WX    TMP DP  RH WIND       PRES   REMARKS
WAUSAU         CLOUDY    30  15  53 CALM      30.09S
MOSINEE        CLOUDY    30  19  64 NE5       30.10F WCI  25
MARSHFIELD     CLOUDY    27  15  61 E8        30.07F WCI  19
STEVENS POINT  CLOUDY    30  18  60 NE3       30.11S
WAUPACA        RAIN      33  21  61 CALM      30.13F
WAUTOMA        LGT SNOW  30  27  88 E8        30.11F FOG     WCI  22
WISC RAPIDS    MIX PCPN  30  25  81 E7        30.10F WCI  23
CAMP DOUGLAS   NOT AVBL
$$

WIZ011>013-019>022-031-037>040-048>050-162200-
NORTHEAST WISCONSIN

CITY           SKY/WX    TMP DP  RH WIND       PRES   REMARKS
ANTIGO         CLOUDY    23  15  71 CALM      30.09F
SHAWANO        CLOUDY    28  20  72 CALM      30.14S
OCONTO         CLOUDY    30  18  60 CALM      30.15F
STURGEON BAY   CLOUDY    34  18  52 S3        30.16F
GREEN BAY      CLOUDY    34  23  64 NE7       30.15S WCI  28
MANITOWOC      MIX PCPN  32  25  74 E3        30.16F
APPLETON       DRIZZLE   32  19  59 E3        30.11F
CLINTONVILLE   CLOUDY    30  18  59 CALM      30.14S
OSHKOSH        MIX PCPN  31  25  78 NE5       30.12F WCI  26
$$

WIZ032>034-041-042-053>061-162200-
SOUTHWEST WISCONSIN

CITY           SKY/WX    TMP DP  RH WIND       PRES   REMARKS
LA CROSSE      FRZ RAIN  34  28  79 W5        30.05F WCI  30
SPARTA         MIX PCPN  32  30  94 E7        30.07F WCI  25
VIROQUA        CLOUDY    32  32 100 E9        30.01F WCI  24
BOSCOBEL       LGT RAIN  33  31  92 NE5       30.04F FOG     WCI  29
PRAIRIE DU CHI MIX PCPN  33  32  96 E6        30.01F WCI  28
PLATTEVILLE    CLOUDY    33  33 100 E8        30.01F WCI  26
$$

WIZ056-057-062-063-064-067-068-162200-
SOUTH CENTRAL WISCONSIN

CITY           SKY/WX    TMP DP  RH WIND       PRES   REMARKS
REEDSBURG      RAIN      32  32 100 E5        30.06F WCI  27
BARABOO/DELLS  MIX PCPN  32  31  95 E9        30.07S WCI  24
LONE ROCK      NOT AVBL
MINERAL POINT  LGT RAIN  34  34 100 E9        30.01F WCI  26
MADISON        FRZ RAIN  32  31  96 E6        30.07F FOG     WCI  26
MIDDLETON      CLOUDY    33  33 100 E6        30.08S WCI  28
WATERTOWN      MIX PCPN  33  33 100 E6        30.08F WCI  27
MONROE         MIX PCPN  32  32 100 NE8       30.03F VSB 1/4 WCI  25
JANESVILLE     RAIN      36  36 100 E9        30.06F WCI  29
$$

WIZ051-052-058>065-066-070>072-162200-
SOUTHEAST WISCONSIN

CITY           SKY/WX    TMP DP  RH WIND       PRES   REMARKS
MILWAUKEE      LGT RAIN  36  32  85 E12       30.11F FOG     WCI  28
WAUKESHA       LGT RAIN  32  30  93 E9        30.10F FOG     WCI  24
MILWAUKEE/TIMM LGT RAIN  34  30  86 E5        30.12F FOG     WCI  30
RACINE         LGT RAIN  35  33  92 E12       30.11F FOG     WCI  27
KENOSHA        LGT RAIN  36  34  92 E8        30.09F VSB 1/4 WCI  30
FOND DU LAC    LGT RAIN  34  28  79 E7        30.11F WCI  28
SHEBOYGAN      LGT RAIN  33  29  85 E7        30.14F FOG     WCI  27
WEST BEND      CLOUDY    32  32 100 E7        30.11F FOG     WCI  26
JUNEAU         DRIZZLE   33  31  95 E8        30.10F WCI  26
$$

LSZ147-162-162200-
LAKE SUPERIOR

STATION/POSITION TIME  TEMP    WIND        PRES    WAVE
                       AIR SEA DIR/SP/G            HT/PER
                 (UTC) (F)     (DEG/KT/KT) (MB)    (FT/S)
DEVILS ISLAND    2000   31     210/ 10/ 13 1019.7F
PORT WING        2040   30     310/  3/  3 1019.0F
SAXON HARBOR     2040   32      70/  4/  5 1018.6F
$$

LMZ867-665-643>646-162200-
LAKE MICHIGAN

STATION/POSITION TIME  TEMP    WIND        PRES    WAVE
                       AIR SEA DIR/SP/G            HT/PER
                 (UTC) (F)     (DEG/KT/KT) (MB)    (FT/S)
NORTHPORT PIER   2040   28      CALM  /  3 1021.3S
SISTER BAY       2020   30        CALM       N/A
KEWAUNEE LAKESHO 2030   32     110/  1/  2 1020.8F
SHEBOYGAN LAKESH 2000   31      40/  4/  4 1021.8F
PORT WASHINGTON  2040   34      90/  7/  8 1021.3F
MILWAUKEE LAKESH 2030   34      80/ 10/ 11   N/A
KENOSHA   LAKESH 2000   35      90/  5/  6 1020.0
$$

TC  - TEMPERATURE IN CELSIUS
VSB - VISIBILITY IN STATUTE MILES
WCI - WIND CHILL INDEX
HX  - HEAT INDEX





USA.gov is the U.S. government's official web portal to all federal, state and local government web resources and services.